Main page


Airports :

Maragheh, Iran

latitude: 37-20-55N, longitude: 046-07-35E, elevation: 1340 m

Current weather observation

The report was made 1 hour and 0 minutes ago, at 09:00 UTC
Wind 4 kt from the West
Temperature 11°C
Humidity 54%
Pressure 1018 hPa
Visibility 10 km or more
Few clouds at a height of 3100 ft

METAR: OITM 180900Z 27004KT 9999 FEW031 11/02 Q1018

Time: 13:30 (10:00 UTC)

TAF: missing

Weather observations and forecasts of more than 4000 airports (METAR and TAF reports).

The available stations are represented by yellow and red dots on the map.

Hover mouse over dot to see the name of the station.

Then click to see weather observations and forecasts.

To change the map : click on the green buttons with a black cross to zoom in, on the green button with a dash to zoom out, or on the green arrows for adjacent maps.